Time,TemperatureF,DewpointF,PressureIn,WindDirection,WindDirectionDegrees,WindSpeedMPH,WindSpeedGustMPH,Humidity,HourlyPrecipIn,Conditions,Clouds,dailyrainin,SoftwareType,DateUTC
2013-07-21 00:01:00,73.5,71.7,30.00,SSE,163,0.0,3.0,94,0.00,,---,0.00,VWS V14.01,2013-07-21 04:01:00,
2013-07-21 00:02:00,73.5,71.7,30.00,SSE,148,2.0,2.0,94,0.00,,---,0.00,VWS V14.01,2013-07-21 04:02:00,
2013-07-21 00:07:00,73.4,71.6,30.00,SSE,148,1.0,2.0,94,0.00,,---,0.00,VWS V14.01,2013-07-21 04:07:00,
2013-07-21 00:12:00,73.3,71.8,30.00,SE,138,1.0,1.0,95,0.00,,---,0.00,VWS V14.01,2013-07-21 04:12:00,
2013-07-21 00:17:00,73.4,71.9,30.00,SE,138,2.0,3.0,95,0.00,,---,0.00,VWS V14.01,2013-07-21 04:17:00,
2013-07-21 00:22:00,73.4,71.9,30.00,SE,133,3.0,4.0,95,0.00,,---,0.00,VWS V14.01,2013-07-21 04:22:00,
2013-07-21 00:27:00,73.4,71.9,29.99,SE,146,2.0,3.0,95,0.00,,---,0.00,VWS V14.01,2013-07-21 04:27:00,
2013-07-21 00:32:00,73.4,71.9,30.00,SE,141,2.0,4.0,95,0.00,,---,0.00,VWS V14.01,2013-07-21 04:32:00,
2013-07-21 00:37:00,73.4,71.9,30.00,SE,146,3.0,3.0,95,0.00,,---,0.00,VWS V14.01,2013-07-21 04:37:00,
2013-07-21 00:42:00,73.4,71.9,30.00,SE,145,2.0,3.0,95,0.00,,---,0.00,VWS V14.01,2013-07-21 04:42:00,
2013-07-21 00:47:00,73.5,72.0,30.00,SE,146,3.0,4.0,95,0.00,,---,0.00,VWS V14.01,2013-07-21 04:47:00,
2013-07-21 00:52:00,73.4,71.9,30.00,South,169,1.0,5.0,95,0.00,,---,0.00,VWS V14.01,2013-07-21 04:52:00,
2013-07-21 00:57:00,73.5,72.0,30.00,SSE,165,3.0,5.0,95,0.00,,---,0.00,VWS V14.01,2013-07-21 04:57:00,
2013-07-21 01:02:00,73.5,72.0,30.00,South,177,2.0,5.0,95,0.00,,---,0.00,VWS V14.01,2013-07-21 05:02:00,
2013-07-21 01:07:00,73.5,72.0,30.00,South,172,2.0,3.0,95,0.00,,---,0.00,VWS V14.01,2013-07-21 05:07:00,
2013-07-21 01:12:00,73.5,72.0,30.00,SSW,198,2.0,4.0,95,0.00,,---,0.00,VWS V14.01,2013-07-21 05:12:00,
2013-07-21 01:17:00,73.5,72.3,30.00,South,172,2.0,4.0,96,0.00,,---,0.00,VWS V14.01,2013-07-21 05:17:00,
2013-07-21 01:22:00,73.5,72.3,30.00,South,180,3.0,5.0,96,0.00,,---,0.00,VWS V14.01,2013-07-21 05:22:00,
2013-07-21 01:27:00,73.5,72.3,30.00,SSW,201,1.0,4.0,96,0.00,,---,0.00,VWS V14.01,2013-07-21 05:27:00,
2013-07-21 01:32:00,73.5,72.3,29.99,SSE,153,2.0,5.0,96,0.00,,---,0.00,VWS V14.01,2013-07-21 05:32:00,
2013-07-21 01:37:00,73.4,72.2,30.00,SSE,165,2.0,4.0,96,0.00,,---,0.00,VWS V14.01,2013-07-21 05:37:00,
2013-07-21 01:42:00,73.4,72.2,29.99,South,190,4.0,7.0,96,0.00,,---,0.00,VWS V14.01,2013-07-21 05:42:00,
2013-07-21 01:47:00,73.4,72.2,29.99,SE,146,4.0,6.0,96,0.00,,---,0.00,VWS V14.01,2013-07-21 05:47:00,
2013-07-21 01:52:00,73.4,72.2,29.99,South,176,3.0,4.0,96,0.00,,---,0.00,VWS V14.01,2013-07-21 05:52:00,
2013-07-21 01:57:00,73.4,72.2,29.99,SE,146,3.0,4.0,96,0.00,,---,0.00,VWS V14.01,2013-07-21 05:57:00,
2013-07-21 02:02:00,73.3,72.1,29.99,South,177,2.0,5.0,96,0.00,,---,0.00,VWS V14.01,2013-07-21 06:02:00,
2013-07-21 02:07:00,73.3,72.1,29.99,South,176,1.0,2.0,96,0.00,,---,0.00,VWS V14.01,2013-07-21 06:07:00,
2013-07-21 02:12:00,73.3,72.1,29.99,South,191,1.0,3.0,96,0.00,,---,0.00,VWS V14.01,2013-07-21 06:12:00,
2013-07-21 02:17:00,73.2,72.0,29.99,SSE,157,1.0,3.0,96,0.00,,---,0.00,VWS V14.01,2013-07-21 06:17:00,
2013-07-21 02:22:00,73.2,72.0,29.98,SSW,204,0.0,4.0,96,0.00,,---,0.00,VWS V14.01,2013-07-21 06:22:00,
2013-07-21 02:27:00,73.1,71.9,29.98,South,190,3.0,4.0,96,0.00,,---,0.00,VWS V14.01,2013-07-21 06:27:00,
2013-07-21 02:32:00,73.1,71.9,29.98,South,187,3.0,3.0,96,0.00,,---,0.00,VWS V14.01,2013-07-21 06:32:00,
2013-07-21 02:37:00,73.0,71.8,29.98,South,172,5.0,5.0,96,0.00,,---,0.00,VWS V14.01,2013-07-21 06:37:00,
2013-07-21 02:42:00,73.0,71.8,29.98,SSW,210,2.0,3.0,96,0.00,,---,0.00,VWS V14.01,2013-07-21 06:42:00,
2013-07-21 02:47:00,72.9,71.7,29.98,SSE,162,2.0,5.0,96,0.00,,---,0.00,VWS V14.01,2013-07-21 06:47:00,
2013-07-21 02:52:00,72.8,71.6,29.98,South,169,3.0,5.0,96,0.00,,---,0.00,VWS V14.01,2013-07-21 06:52:00,
2013-07-21 02:57:00,72.7,71.5,29.98,SSE,148,3.0,5.0,96,0.00,,---,0.00,VWS V14.01,2013-07-21 06:57:00,
2013-07-21 03:02:00,72.7,71.5,29.98,SSE,155,4.0,6.0,96,0.00,,---,0.00,VWS V14.01,2013-07-21 07:02:00,
2013-07-21 03:07:00,72.6,71.4,29.98,SSW,211,4.0,5.0,96,0.00,,---,0.00,VWS V14.01,2013-07-21 07:07:00,
2013-07-21 03:12:00,72.6,71.7,29.98,SSW,195,2.0,5.0,97,0.00,,---,0.00,VWS V14.01,2013-07-21 07:12:00,
2013-07-21 03:17:00,72.5,71.6,29.98,SW,214,1.0,5.0,97,0.00,,---,0.00,VWS V14.01,2013-07-21 07:17:00,
2013-07-21 03:22:00,72.5,71.6,29.97,SE,143,5.0,6.0,97,0.00,,---,0.00,VWS V14.01,2013-07-21 07:22:00,
2013-07-21 03:27:00,72.5,71.6,29.97,SW,225,4.0,5.0,97,0.00,,---,0.00,VWS V14.01,2013-07-21 07:27:00,
2013-07-21 03:32:00,72.5,71.6,29.97,South,170,4.0,4.0,97,0.00,,---,0.00,VWS V14.01,2013-07-21 07:32:00,
2013-07-21 03:37:00,72.4,71.5,29.97,SW,233,3.0,4.0,97,0.00,,---,0.00,VWS V14.01,2013-07-21 07:37:00,
2013-07-21 03:42:00,72.4,71.5,29.97,SW,219,4.0,6.0,97,0.00,,---,0.00,VWS V14.01,2013-07-21 07:42:00,
2013-07-21 03:47:00,72.4,71.5,29.97,SSW,203,2.0,5.0,97,0.00,,---,0.00,VWS V14.01,2013-07-21 07:47:00,
2013-07-21 03:52:00,72.4,71.5,29.97,SW,219,2.0,7.0,97,0.00,,---,0.00,VWS V14.01,2013-07-21 07:52:00,
2013-07-21 03:57:00,72.4,71.5,29.97,SSW,208,2.0,5.0,97,0.00,,---,0.00,VWS V14.01,2013-07-21 07:57:00,
2013-07-21 04:02:00,72.4,71.5,29.97,SW,222,1.0,5.0,97,0.00,,---,0.00,VWS V14.01,2013-07-21 08:02:00,
2013-07-21 04:07:00,72.3,71.4,29.96,SSW,207,2.0,4.0,97,0.00,,---,0.00,VWS V14.01,2013-07-21 08:07:00,
2013-07-21 04:12:00,72.3,71.4,29.96,SW,214,2.0,4.0,97,0.00,,---,0.00,VWS V14.01,2013-07-21 08:12:00,
2013-07-21 04:17:00,72.3,71.4,29.96,WSW,240,2.0,5.0,97,0.00,,---,0.00,VWS V14.01,2013-07-21 08:17:00,
2013-07-21 04:22:00,72.2,71.3,29.96,West,259,1.0,6.0,97,0.00,,---,0.00,VWS V14.01,2013-07-21 08:22:00,
2013-07-21 04:27:00,72.2,71.3,29.96,South,186,2.0,2.0,97,0.00,,---,0.00,VWS V14.01,2013-07-21 08:27:00,
2013-07-21 04:32:00,72.1,71.2,29.96,SW,215,3.0,3.0,97,0.00,,---,0.00,VWS V14.01,2013-07-21 08:32:00,
2013-07-21 04:37:00,72.1,71.2,29.96,SW,222,3.0,3.0,97,0.00,,---,0.00,VWS V14.01,2013-07-21 08:37:00,
2013-07-21 04:42:00,72.2,71.3,29.96,WSW,238,0.0,5.0,97,0.00,,---,0.00,VWS V14.01,2013-07-21 08:42:00,
2013-07-21 04:47:00,72.2,71.3,29.96,South,186,1.0,4.0,97,0.00,,---,0.00,VWS V14.01,2013-07-21 08:47:00,
2013-07-21 04:52:00,72.2,71.3,29.96,South,173,1.0,2.0,97,0.00,,---,0.00,VWS V14.01,2013-07-21 08:52:00,
2013-07-21 04:57:00,72.2,71.3,29.96,SW,236,3.0,5.0,97,0.00,,---,0.00,VWS V14.01,2013-07-21 08:57:00,
2013-07-21 05:02:00,72.2,71.3,29.96,SW,222,2.0,3.0,97,0.00,,---,0.00,VWS V14.01,2013-07-21 09:02:00,
2013-07-21 05:07:00,72.2,71.3,29.96,WSW,239,3.0,4.0,97,0.00,,---,0.00,VWS V14.01,2013-07-21 09:07:00,
2013-07-21 05:12:00,72.3,71.4,29.96,SW,214,1.0,3.0,97,0.00,,---,0.00,VWS V14.01,2013-07-21 09:12:00,
2013-07-21 05:18:00,72.3,71.4,29.96,SSW,207,2.0,4.0,97,0.00,,---,0.00,VWS V14.01,2013-07-21 09:18:00,
2013-07-21 05:23:00,72.3,71.4,29.96,West,263,2.0,5.0,97,0.00,,---,0.00,VWS V14.01,2013-07-21 09:23:00,
2013-07-21 05:28:00,72.4,71.5,29.96,WSW,238,3.0,4.0,97,0.00,,---,0.00,VWS V14.01,2013-07-21 09:28:00,
2013-07-21 05:33:00,72.4,71.5,29.96,West,259,0.0,4.0,97,0.00,,---,0.00,VWS V14.01,2013-07-21 09:33:00,
2013-07-21 05:38:00,72.4,71.8,29.96,WSW,243,2.0,6.0,98,0.00,,---,0.00,VWS V14.01,2013-07-21 09:38:00,
2013-07-21 05:43:00,72.4,71.8,29.96,WSW,244,1.0,6.0,98,0.00,,---,0.00,VWS V14.01,2013-07-21 09:43:00,
2013-07-21 05:48:00,72.4,71.8,29.96,SW,219,6.0,7.0,98,0.00,,---,0.00,VWS V14.01,2013-07-21 09:48:00,
2013-07-21 05:53:00,72.4,71.8,29.96,SW,224,0.0,5.0,98,0.00,,---,0.00,VWS V14.01,2013-07-21 09:53:00,
2013-07-21 05:58:00,72.4,71.8,29.96,WSW,245,4.0,6.0,98,0.00,,---,0.00,VWS V14.01,2013-07-21 09:58:00,
2013-07-21 06:03:00,72.4,71.8,29.96,SSW,200,4.0,7.0,98,0.00,,---,0.00,VWS V14.01,2013-07-21 10:03:00,
2013-07-21 06:08:00,72.5,71.9,29.96,SSW,203,2.0,6.0,98,0.00,,---,0.00,VWS V14.01,2013-07-21 10:08:00,
2013-07-21 06:13:00,72.5,71.9,29.96,SSW,212,1.0,6.0,98,0.00,,---,0.00,VWS V14.01,2013-07-21 10:13:00,
2013-07-21 06:18:00,72.5,71.9,29.96,South,190,1.0,5.0,98,0.00,,---,0.00,VWS V14.01,2013-07-21 10:18:00,
2013-07-21 06:23:00,72.5,71.9,29.96,West,273,5.0,6.0,98,0.00,,---,0.00,VWS V14.01,2013-07-21 10:23:00,
2013-07-21 06:28:00,72.5,71.9,29.97,WSW,243,2.0,9.0,98,0.00,,---,0.00,VWS V14.01,2013-07-21 10:28:00,
2013-07-21 06:33:00,72.5,71.9,29.97,SSW,204,3.0,4.0,98,0.00,,---,0.00,VWS V14.01,2013-07-21 10:33:00,
2013-07-21 06:38:00,72.6,72.0,29.97,SSW,208,3.0,5.0,98,0.00,,---,0.00,VWS V14.01,2013-07-21 10:38:00,
2013-07-21 06:43:00,72.6,72.0,29.97,WSW,251,6.0,6.0,98,0.00,,---,0.00,VWS V14.01,2013-07-21 10:43:00,
2013-07-21 06:48:00,72.6,72.0,29.97,SW,226,1.0,5.0,98,0.00,,---,0.00,VWS V14.01,2013-07-21 10:48:00,
2013-07-21 06:53:00,72.6,72.0,29.97,SSW,207,2.0,4.0,98,0.00,,---,0.00,VWS V14.01,2013-07-21 10:53:00,
2013-07-21 06:58:00,72.6,72.0,29.97,SW,232,4.0,5.0,98,0.00,,---,0.00,VWS V14.01,2013-07-21 10:58:00,
2013-07-21 07:03:00,72.6,72.0,29.98,SW,214,1.0,2.0,98,0.00,,---,0.00,VWS V14.01,2013-07-21 11:03:00,
2013-07-21 07:08:00,72.7,72.1,29.98,WSW,248,1.0,3.0,98,0.00,,---,0.00,VWS V14.01,2013-07-21 11:08:00,
2013-07-21 07:13:00,72.7,72.1,29.98,WSW,242,1.0,2.0,98,0.00,,---,0.00,VWS V14.01,2013-07-21 11:13:00,
2013-07-21 07:18:00,72.7,72.1,29.98,WSW,249,2.0,3.0,98,0.00,,---,0.00,VWS V14.01,2013-07-21 11:18:00,
2013-07-21 07:23:00,72.7,72.1,29.98,SW,236,1.0,3.0,98,0.00,,---,0.00,VWS V14.01,2013-07-21 11:23:00,
2013-07-21 07:28:00,72.7,72.1,29.98,SW,228,0.0,4.0,98,0.00,,---,0.00,VWS V14.01,2013-07-21 11:28:00,
2013-07-21 07:33:00,72.8,72.2,29.98,SW,214,0.0,4.0,98,0.00,,---,0.00,VWS V14.01,2013-07-21 11:33:00,
2013-07-21 07:38:00,72.8,72.2,29.99,WSW,251,2.0,5.0,98,0.00,,---,0.00,VWS V14.01,2013-07-21 11:38:00,
2013-07-21 07:43:00,72.8,72.2,29.99,SW,229,2.0,5.0,98,0.00,,---,0.00,VWS V14.01,2013-07-21 11:43:00,
2013-07-21 07:48:00,72.8,71.9,29.99,West,259,4.0,5.0,97,0.00,,---,0.00,VWS V14.01,2013-07-21 11:48:00,
2013-07-21 07:53:00,72.9,72.0,29.99,SW,232,2.0,3.0,97,0.00,,---,0.00,VWS V14.01,2013-07-21 11:53:00,
2013-07-21 07:58:00,72.9,72.0,29.99,SW,219,3.0,8.0,97,0.00,,---,0.00,VWS V14.01,2013-07-21 11:58:00,
2013-07-21 08:03:00,73.0,72.1,30.00,West,281,0.0,3.0,97,0.00,,---,0.00,VWS V14.01,2013-07-21 12:03:00,
2013-07-21 08:08:00,73.1,72.2,30.00,WSW,242,3.0,5.0,97,0.00,,---,0.00,VWS V14.01,2013-07-21 12:08:00,
2013-07-21 08:13:00,73.1,71.9,30.00,SW,216,4.0,5.0,96,0.00,,---,0.00,VWS V14.01,2013-07-21 12:13:00,
2013-07-21 08:18:00,73.2,72.0,30.00,SSW,197,8.0,8.0,96,0.00,,---,0.00,VWS V14.01,2013-07-21 12:18:00,
2013-07-21 08:23:00,73.3,71.8,30.00,WSW,251,4.0,7.0,95,0.00,,---,0.00,VWS V14.01,2013-07-21 12:23:00,
2013-07-21 08:28:00,73.4,71.9,30.01,WSW,257,4.0,8.0,95,0.00,,---,0.00,VWS V14.01,2013-07-21 12:28:00,
2013-07-21 08:33:00,73.5,72.0,30.00,SW,224,3.0,5.0,95,0.00,,---,0.00,VWS V14.01,2013-07-21 12:33:00,
2013-07-21 08:38:00,73.5,72.0,30.01,WSW,247,9.0,9.0,95,0.00,,---,0.00,VWS V14.01,2013-07-21 12:38:00,
2013-07-21 08:43:00,73.6,72.1,30.00,WSW,247,3.0,6.0,95,0.00,,---,0.00,VWS V14.01,2013-07-21 12:43:00,
2013-07-21 08:48:00,73.7,72.2,30.01,SW,229,2.0,6.0,95,0.00,,---,0.00,VWS V14.01,2013-07-21 12:48:00,
2013-07-21 08:53:00,73.8,72.3,30.01,SSW,207,4.0,7.0,95,0.00,,---,0.00,VWS V14.01,2013-07-21 12:53:00,
2013-07-21 08:58:00,73.9,72.4,30.00,WSW,256,2.0,4.0,95,0.00,,---,0.00,VWS V14.01,2013-07-21 12:58:00,
2013-07-21 09:03:00,74.1,72.3,30.01,WSW,244,2.0,6.0,94,0.00,,---,0.00,VWS V14.01,2013-07-21 13:03:00,
2013-07-21 09:08:00,74.2,72.4,30.00,SSW,198,1.0,6.0,94,0.00,,---,0.00,VWS V14.01,2013-07-21 13:08:00,
2013-07-21 09:13:00,74.4,72.6,30.00,SSW,201,5.0,6.0,94,0.00,,---,0.00,VWS V14.01,2013-07-21 13:13:00,
2013-07-21 09:18:00,74.4,72.6,30.00,SW,214,3.0,4.0,94,0.00,,---,0.00,VWS V14.01,2013-07-21 13:18:00,
2013-07-21 09:23:00,74.5,72.7,30.01,SSE,159,1.0,3.0,94,0.00,,---,0.00,VWS V14.01,2013-07-21 13:23:00,
2013-07-21 09:28:00,74.7,72.9,30.01,SSW,212,2.0,3.0,94,0.00,,---,0.00,VWS V14.01,2013-07-21 13:28:00,
2013-07-21 09:33:00,74.9,73.1,30.01,SW,220,0.0,5.0,94,0.00,,---,0.00,VWS V14.01,2013-07-21 13:33:00,
2013-07-21 09:38:00,74.9,72.4,30.01,WSW,240,1.0,8.0,92,0.00,,---,0.00,VWS V14.01,2013-07-21 13:38:00,
2013-07-21 09:43:00,75.1,72.6,30.01,West,267,0.0,5.0,92,0.00,,---,0.00,VWS V14.01,2013-07-21 13:43:00,
2013-07-21 09:48:00,75.3,72.8,30.01,West,280,6.0,9.0,92,0.00,,---,0.00,VWS V14.01,2013-07-21 13:48:00,
2013-07-21 09:53:00,75.3,72.5,30.02,WSW,251,3.0,5.0,91,0.00,,---,0.00,VWS V14.01,2013-07-21 13:53:00,
2013-07-21 09:58:00,75.3,72.5,30.01,SW,218,1.0,5.0,91,0.00,,---,0.00,VWS V14.01,2013-07-21 13:58:00,
2013-07-21 10:03:00,75.4,72.6,30.01,SW,224,3.0,5.0,91,0.00,,---,0.00,VWS V14.01,2013-07-21 14:03:00,
2013-07-21 10:08:00,75.5,72.7,30.02,West,259,2.0,6.0,91,0.00,,---,0.00,VWS V14.01,2013-07-21 14:08:00,
2013-07-21 10:13:00,75.7,72.9,30.02,WSW,245,1.0,6.0,91,0.00,,---,0.00,VWS V14.01,2013-07-21 14:13:00,
2013-07-21 10:18:00,75.6,72.5,30.02,SW,219,2.0,5.0,90,0.00,,---,0.00,VWS V14.01,2013-07-21 14:18:00,
2013-07-21 10:23:00,75.9,72.8,30.02,SW,215,0.0,3.0,90,0.00,,---,0.00,VWS V14.01,2013-07-21 14:23:00,
2013-07-21 10:28:00,76.2,73.1,30.02,WSW,239,3.0,6.0,90,0.00,,---,0.00,VWS V14.01,2013-07-21 14:28:00,
2013-07-21 10:33:00,76.3,73.2,30.02,SSW,207,5.0,5.0,90,0.00,,---,0.00,VWS V14.01,2013-07-21 14:33:00,
2013-07-21 10:38:00,76.4,72.9,30.02,South,186,4.0,7.0,89,0.00,,---,0.00,VWS V14.01,2013-07-21 14:38:00,
2013-07-21 10:43:00,76.5,73.0,30.02,WSW,250,0.0,7.0,89,0.00,,---,0.00,VWS V14.01,2013-07-21 14:43:00,
2013-07-21 10:48:00,76.5,73.0,30.02,WSW,249,3.0,6.0,89,0.00,,---,0.00,VWS V14.01,2013-07-21 14:48:00,
2013-07-21 10:53:00,76.6,73.4,30.02,South,183,1.0,3.0,90,0.00,,---,0.00,VWS V14.01,2013-07-21 14:53:00,
2013-07-21 10:58:00,76.7,73.2,30.02,WSW,256,1.0,4.0,89,0.00,,---,0.00,VWS V14.01,2013-07-21 14:58:00,
2013-07-21 11:03:00,77.0,73.5,30.02,SW,217,0.0,6.0,89,0.00,,---,0.00,VWS V14.01,2013-07-21 15:03:00,
2013-07-21 11:08:00,77.4,73.9,30.02,West,266,0.0,1.0,89,0.00,,---,0.00,VWS V14.01,2013-07-21 15:08:00,
2013-07-21 11:13:00,77.7,73.5,30.02,West,270,1.0,6.0,87,0.00,,---,0.00,VWS V14.01,2013-07-21 15:13:00,
2013-07-21 11:18:00,77.8,73.3,30.02,NW,317,2.0,8.0,86,0.00,,---,0.00,VWS V14.01,2013-07-21 15:18:00,
2013-07-21 11:23:00,78.1,73.9,30.02,WSW,253,1.0,6.0,87,0.00,,---,0.00,VWS V14.01,2013-07-21 15:23:00,
2013-07-21 11:28:00,78.4,74.2,30.02,WSW,239,3.0,4.0,87,0.00,,---,0.00,VWS V14.01,2013-07-21 15:28:00,
2013-07-21 11:33:00,78.4,73.5,30.02,West,272,3.0,7.0,85,0.00,,---,0.00,VWS V14.01,2013-07-21 15:33:00,
2013-07-21 11:38:00,78.5,73.6,30.02,WSW,246,2.0,7.0,85,0.00,,---,0.00,VWS V14.01,2013-07-21 15:38:00,
2013-07-21 11:43:00,78.6,74.1,30.01,SSW,197,2.0,4.0,86,0.00,,---,0.00,VWS V14.01,2013-07-21 15:43:00,
2013-07-21 11:49:00,78.8,74.3,30.01,WSW,256,1.0,7.0,86,0.00,,---,0.00,VWS V14.01,2013-07-21 15:49:00,
2013-07-21 11:54:00,79.0,74.1,30.01,West,260,0.0,7.0,85,0.00,,---,0.00,VWS V14.01,2013-07-21 15:54:00,
2013-07-21 11:59:00,79.6,74.3,30.01,WSW,239,1.0,3.0,84,0.00,,---,0.00,VWS V14.01,2013-07-21 15:59:00,
2013-07-21 12:04:00,80.1,74.1,30.01,SSW,204,5.0,7.0,82,0.00,,---,0.00,VWS V14.01,2013-07-21 16:04:00,
2013-07-21 12:09:00,80.1,74.5,30.01,SW,214,5.0,6.0,83,0.00,,---,0.00,VWS V14.01,2013-07-21 16:09:00,
2013-07-21 12:14:00,80.3,73.9,30.01,WSW,252,5.0,6.0,81,0.00,,---,0.00,VWS V14.01,2013-07-21 16:14:00,
2013-07-21 12:19:00,80.3,73.9,30.01,SSW,211,0.0,5.0,81,0.00,,---,0.00,VWS V14.01,2013-07-21 16:19:00,
2013-07-21 12:24:00,80.8,74.4,30.01,WNW,290,4.0,6.0,81,0.00,,---,0.00,VWS V14.01,2013-07-21 16:24:00,
2013-07-21 12:29:00,81.0,74.2,30.01,West,263,5.0,9.0,80,0.00,,---,0.00,VWS V14.01,2013-07-21 16:29:00,
2013-07-21 12:34:00,80.9,74.2,30.01,SW,235,1.0,7.0,80,0.00,,---,0.00,VWS V14.01,2013-07-21 16:34:00,
2013-07-21 12:39:00,81.2,74.8,30.00,SSE,149,3.0,6.0,81,0.00,,---,0.00,VWS V14.01,2013-07-21 16:39:00,
2013-07-21 12:44:00,81.4,74.3,30.00,SSE,165,4.0,5.0,79,0.00,,---,0.00,VWS V14.01,2013-07-21 16:44:00,
2013-07-21 12:49:00,81.7,74.6,30.00,SSE,166,3.0,5.0,79,0.00,,---,0.00,VWS V14.01,2013-07-21 16:49:00,
2013-07-21 12:54:00,81.9,74.8,30.00,SSW,201,6.0,8.0,79,0.00,,---,0.00,VWS V14.01,2013-07-21 16:54:00,
2013-07-21 12:59:00,81.8,75.0,30.00,SSW,197,5.0,7.0,80,0.00,,---,0.00,VWS V14.01,2013-07-21 16:59:00,
2013-07-21 13:04:00,82.0,75.6,29.99,WSW,249,3.0,5.0,81,0.00,,---,0.00,VWS V14.01,2013-07-21 17:04:00,
2013-07-21 13:09:00,82.2,74.7,29.99,SSW,208,3.0,5.0,78,0.00,,---,0.00,VWS V14.01,2013-07-21 17:09:00,
2013-07-21 13:14:00,81.8,74.7,29.99,West,278,4.0,8.0,79,0.00,,---,0.00,VWS V14.01,2013-07-21 17:14:00,
2013-07-21 13:19:00,82.0,75.6,29.99,WSW,240,7.0,7.0,81,0.00,,---,0.00,VWS V14.01,2013-07-21 17:19:00,
2013-07-21 13:24:00,82.2,74.7,29.98,South,177,4.0,9.0,78,0.00,,---,0.00,VWS V14.01,2013-07-21 17:24:00,
2013-07-21 13:29:00,82.3,74.4,29.98,SW,215,4.0,7.0,77,0.00,,---,0.00,VWS V14.01,2013-07-21 17:29:00,
2013-07-21 13:34:00,82.3,74.8,29.98,WSW,250,2.0,7.0,78,0.00,,---,0.00,VWS V14.01,2013-07-21 17:34:00,
2013-07-21 13:39:00,82.5,74.6,29.98,SW,217,2.0,7.0,77,0.00,,---,0.00,VWS V14.01,2013-07-21 17:39:00,
2013-07-21 13:44:00,82.7,74.8,29.98,SW,219,2.0,7.0,77,0.00,,---,0.00,VWS V14.01,2013-07-21 17:44:00,
2013-07-21 13:49:00,82.9,74.6,29.97,WSW,255,5.0,6.0,76,0.00,,---,0.00,VWS V14.01,2013-07-21 17:49:00,
2013-07-21 13:54:00,83.2,75.2,29.97,SW,228,2.0,9.0,77,0.00,,---,0.00,VWS V14.01,2013-07-21 17:54:00,
2013-07-21 13:59:00,83.6,75.2,29.96,NW,307,4.0,7.0,76,0.00,,---,0.00,VWS V14.01,2013-07-21 17:59:00,
2013-07-21 14:04:00,83.6,75.6,29.97,SSW,204,3.0,4.0,77,0.00,,---,0.00,VWS V14.01,2013-07-21 18:04:00,
2013-07-21 14:09:00,84.0,75.2,29.96,WSW,242,5.0,6.0,75,0.00,,---,0.00,VWS V14.01,2013-07-21 18:09:00,
2013-07-21 14:14:00,84.2,74.6,29.96,SW,228,3.0,10.0,73,0.00,,---,0.00,VWS V14.01,2013-07-21 18:14:00,
2013-07-21 14:19:00,83.8,75.0,29.96,WSW,248,5.0,6.0,75,0.00,,---,0.00,VWS V14.01,2013-07-21 18:19:00,
2013-07-21 14:24:00,83.5,75.1,29.96,SW,228,2.0,8.0,76,0.00,,---,0.00,VWS V14.01,2013-07-21 18:24:00,
2013-07-21 14:29:00,83.5,75.1,29.95,SW,225,3.0,3.0,76,0.00,,---,0.00,VWS V14.01,2013-07-21 18:29:00,
2013-07-21 14:34:00,83.9,75.9,29.95,SE,129,2.0,4.0,77,0.00,,---,0.00,VWS V14.01,2013-07-21 18:34:00,
2013-07-21 14:39:00,84.5,75.7,29.95,SSW,195,1.0,5.0,75,0.00,,---,0.00,VWS V14.01,2013-07-21 18:39:00,
2013-07-21 14:44:00,84.8,75.6,29.94,East,101,4.0,4.0,74,0.00,,---,0.00,VWS V14.01,2013-07-21 18:44:00,
2013-07-21 14:49:00,85.2,75.2,29.94,West,271,4.0,7.0,72,0.00,,---,0.00,VWS V14.01,2013-07-21 18:49:00,
2013-07-21 14:54:00,85.2,75.2,29.94,West,269,3.0,6.0,72,0.00,,---,0.00,VWS V14.01,2013-07-21 18:54:00,
2013-07-21 14:59:00,84.7,74.7,29.94,SW,218,3.0,5.0,72,0.00,,---,0.00,VWS V14.01,2013-07-21 18:59:00,
2013-07-21 15:04:00,85.0,77.0,29.94,South,187,1.0,5.0,77,0.00,,---,0.00,VWS V14.01,2013-07-21 19:04:00,
2013-07-21 15:09:00,85.8,76.2,29.94,SSW,195,0.0,2.0,73,0.00,,---,0.00,VWS V14.01,2013-07-21 19:09:00,
2013-07-21 15:14:00,86.1,74.3,29.94,SW,220,1.0,4.0,68,0.00,,---,0.00,VWS V14.01,2013-07-21 19:14:00,
2013-07-21 15:19:00,86.1,75.6,29.94,South,191,1.0,2.0,71,0.00,,---,0.00,VWS V14.01,2013-07-21 19:19:00,
2013-07-21 15:24:00,85.9,74.1,29.93,SSW,207,2.0,3.0,68,0.00,,---,0.00,VWS V14.01,2013-07-21 19:24:00,
2013-07-21 15:29:00,85.6,74.3,29.94,SW,215,1.0,2.0,69,0.00,,---,0.00,VWS V14.01,2013-07-21 19:29:00,
2013-07-21 15:34:00,85.4,75.3,29.94,SW,226,0.0,2.0,72,0.00,,---,0.00,VWS V14.01,2013-07-21 19:34:00,
2013-07-21 15:39:00,85.3,76.1,29.94,SW,226,0.0,1.0,74,0.00,,---,0.00,VWS V14.01,2013-07-21 19:39:00,
2013-07-21 15:44:00,85.5,75.9,29.93,WSW,248,0.0,1.0,73,0.00,,---,0.00,VWS V14.01,2013-07-21 19:44:00,
2013-07-21 15:49:00,85.5,75.4,29.93,SSE,165,1.0,1.0,72,0.00,,---,0.00,VWS V14.01,2013-07-21 19:49:00,
2013-07-21 15:54:00,85.3,76.1,29.93,South,176,2.0,3.0,74,0.00,,---,0.00,VWS V14.01,2013-07-21 19:54:00,
2013-07-21 15:59:00,85.1,76.7,29.92,South,170,1.0,3.0,76,0.00,,---,0.00,VWS V14.01,2013-07-21 19:59:00,
2013-07-21 16:04:00,85.0,76.2,29.92,South,172,1.0,3.0,75,0.00,,---,0.00,VWS V14.01,2013-07-21 20:04:00,
2013-07-21 16:09:00,85.0,77.0,29.92,SSE,165,1.0,2.0,77,0.00,,---,0.00,VWS V14.01,2013-07-21 20:09:00,
2013-07-21 16:14:00,85.1,75.9,29.92,SE,139,3.0,4.0,74,0.00,,---,0.00,VWS V14.01,2013-07-21 20:14:00,
2013-07-21 16:19:00,85.1,74.6,29.91,SW,234,3.0,7.0,71,0.00,,---,0.00,VWS V14.01,2013-07-21 20:19:00,
2013-07-21 16:24:00,84.7,75.1,29.91,SSW,212,3.0,6.0,73,0.00,,---,0.00,VWS V14.01,2013-07-21 20:24:00,
2013-07-21 16:29:00,84.1,74.9,29.91,SSW,198,3.0,5.0,74,0.00,,---,0.00,VWS V14.01,2013-07-21 20:29:00,
2013-07-21 16:34:00,83.7,75.3,29.92,SW,228,1.0,4.0,76,0.00,,---,0.00,VWS V14.01,2013-07-21 20:34:00,
2013-07-21 16:39:00,83.4,75.4,29.92,SW,226,1.0,3.0,77,0.00,,---,0.00,VWS V14.01,2013-07-21 20:39:00,
2013-07-21 16:44:00,83.3,75.7,29.92,SSW,201,0.0,5.0,78,0.00,,---,0.00,VWS V14.01,2013-07-21 20:44:00,
2013-07-21 16:49:00,83.2,76.0,29.92,SSW,195,2.0,6.0,79,0.00,,---,0.00,VWS V14.01,2013-07-21 20:49:00,
2013-07-21 16:54:00,83.3,76.1,29.91,SSW,212,3.0,4.0,79,0.00,,---,0.00,VWS V14.01,2013-07-21 20:54:00,
2013-07-21 16:59:00,83.4,76.2,29.91,SSW,201,2.0,6.0,79,0.00,,---,0.00,VWS V14.01,2013-07-21 20:59:00,
2013-07-21 17:04:00,83.3,76.5,29.91,SSW,205,6.0,7.0,80,0.00,,---,0.00,VWS V14.01,2013-07-21 21:04:00,
2013-07-21 17:09:00,83.0,76.6,29.92,SSW,207,3.0,8.0,81,0.00,,---,0.00,VWS V14.01,2013-07-21 21:09:00,
2013-07-21 17:14:00,82.7,76.7,29.92,SW,236,6.0,8.0,82,0.00,,---,0.00,VWS V14.01,2013-07-21 21:14:00,
2013-07-21 17:19:00,82.4,76.7,29.92,WSW,239,2.0,5.0,83,0.00,,---,0.00,VWS V14.01,2013-07-21 21:19:00,
2013-07-21 17:24:00,82.1,76.8,29.92,WSW,255,0.0,4.0,84,0.00,,---,0.00,VWS V14.01,2013-07-21 21:24:00,
2013-07-21 17:29:00,81.9,76.6,29.92,SW,215,1.0,4.0,84,0.00,,---,0.00,VWS V14.01,2013-07-21 21:29:00,
2013-07-21 17:34:00,81.6,76.7,29.92,SSW,201,2.0,5.0,85,0.00,,---,0.00,VWS V14.01,2013-07-21 21:34:00,
2013-07-21 17:39:00,81.4,76.8,29.92,South,190,0.0,3.0,86,0.00,,---,0.00,VWS V14.01,2013-07-21 21:39:00,
2013-07-21 17:44:00,81.2,76.6,29.92,WSW,248,3.0,3.0,86,0.00,,---,0.00,VWS V14.01,2013-07-21 21:44:00,
2013-07-21 17:49:00,81.0,76.4,29.92,West,271,3.0,4.0,86,0.00,,---,0.00,VWS V14.01,2013-07-21 21:49:00,
2013-07-21 17:54:00,80.9,76.7,29.92,WSW,251,2.0,4.0,87,0.00,,---,0.00,VWS V14.01,2013-07-21 21:54:00,
2013-07-21 17:59:00,80.7,76.5,29.92,SW,214,2.0,5.0,87,0.00,,---,0.00,VWS V14.01,2013-07-21 21:59:00,
2013-07-21 18:04:00,80.5,76.6,29.92,South,191,4.0,7.0,88,0.00,,---,0.00,VWS V14.01,2013-07-21 22:04:00,
2013-07-21 18:09:00,80.4,76.5,29.92,WSW,242,2.0,5.0,88,0.00,,---,0.00,VWS V14.01,2013-07-21 22:09:00,
2013-07-21 18:15:00,80.2,76.3,29.92,SW,214,1.0,3.0,88,0.00,,---,0.00,VWS V14.01,2013-07-21 22:15:00,
2013-07-21 18:20:00,80.0,76.5,29.93,SW,222,1.0,3.0,89,0.00,,---,0.00,VWS V14.01,2013-07-21 22:20:00,
2013-07-21 18:25:00,79.9,76.4,29.93,SW,231,0.0,3.0,89,0.00,,---,0.00,VWS V14.01,2013-07-21 22:25:00,
2013-07-21 18:30:00,79.8,75.9,29.93,SW,219,3.0,3.0,88,0.00,,---,0.00,VWS V14.01,2013-07-21 22:30:00,
2013-07-21 18:35:00,79.7,75.8,29.94,West,269,1.0,4.0,88,0.00,,---,0.00,VWS V14.01,2013-07-21 22:35:00,
2013-07-21 18:40:00,79.6,76.1,29.94,West,266,0.0,3.0,89,0.00,,---,0.00,VWS V14.01,2013-07-21 22:40:00,
2013-07-21 18:45:00,79.4,75.9,29.94,West,281,6.0,7.0,89,0.00,,---,0.00,VWS V14.01,2013-07-21 22:45:00,
2013-07-21 18:50:00,79.3,75.1,29.94,West,281,2.0,11.0,87,0.00,,---,0.00,VWS V14.01,2013-07-21 22:50:00,
2013-07-21 18:55:00,79.2,75.0,29.94,WNW,288,3.0,11.0,87,0.00,,---,0.00,VWS V14.01,2013-07-21 22:55:00,
2013-07-21 19:00:00,79.0,74.8,29.95,WNW,291,2.0,8.0,87,0.00,,---,0.00,VWS V14.01,2013-07-21 23:00:00,
2013-07-21 19:05:00,78.6,74.4,29.95,NW,315,5.0,8.0,87,0.00,,---,0.00,VWS V14.01,2013-07-21 23:05:00,
2013-07-21 19:10:00,78.2,73.3,29.95,West,271,3.0,14.0,85,0.00,,---,0.00,VWS V14.01,2013-07-21 23:10:00,
2013-07-21 19:15:00,77.7,72.8,29.95,West,271,5.0,12.0,85,0.00,,---,0.00,VWS V14.01,2013-07-21 23:15:00,
2013-07-21 19:20:00,77.4,72.9,29.95,NNW,340,4.0,7.0,86,0.00,,---,0.00,VWS V14.01,2013-07-21 23:20:00,
2013-07-21 19:25:00,77.1,72.6,29.94,NW,305,6.0,6.0,86,0.00,,---,0.00,VWS V14.01,2013-07-21 23:25:00,
2013-07-21 19:30:00,76.9,72.7,29.94,West,280,0.0,4.0,87,0.00,,---,0.00,VWS V14.01,2013-07-21 23:30:00,
2013-07-21 19:35:00,76.6,72.4,29.94,WNW,296,2.0,4.0,87,0.00,,---,0.00,VWS V14.01,2013-07-21 23:35:00,
2013-07-21 19:40:00,76.4,72.6,29.94,WSW,256,0.0,2.0,88,0.00,,---,0.00,VWS V14.01,2013-07-21 23:40:00,
2013-07-21 19:45:00,76.3,72.5,29.94,WSW,256,0.0,1.0,88,0.00,,---,0.00,VWS V14.01,2013-07-21 23:45:00,
2013-07-21 19:50:00,76.2,72.4,29.95,WSW,256,0.0,0.0,88,0.00,,---,0.00,VWS V14.01,2013-07-21 23:50:00,
2013-07-21 19:55:00,76.1,72.6,29.94,SSW,203,1.0,1.0,89,0.00,,---,0.00,VWS V14.01,2013-07-21 23:55:00,
2013-07-21 20:00:00,76.0,72.5,29.94,SSE,164,0.0,1.0,89,0.00,,---,0.00,VWS V14.01,2013-07-22 00:00:00,
2013-07-21 20:05:00,75.9,72.4,29.94,SSE,164,0.0,0.0,89,0.01,,---,0.01,VWS V14.01,2013-07-22 00:05:00,
2013-07-21 20:10:00,75.7,72.6,29.94,SSE,164,0.0,0.0,90,0.01,,---,0.01,VWS V14.01,2013-07-22 00:10:00,
2013-07-21 20:15:00,75.6,72.8,29.95,SSE,164,0.0,0.0,91,0.02,,---,0.02,VWS V14.01,2013-07-22 00:15:00,
2013-07-21 20:20:00,75.4,72.6,29.95,SSE,164,0.0,0.0,91,0.02,,---,0.02,VWS V14.01,2013-07-22 00:20:00,
2013-07-21 20:25:00,75.2,72.7,29.95,SSE,164,0.0,1.0,92,0.02,,---,0.02,VWS V14.01,2013-07-22 00:25:00,
2013-07-21 20:30:00,75.1,72.6,29.95,SSE,164,0.0,0.0,92,0.02,,---,0.02,VWS V14.01,2013-07-22 00:30:00,
2013-07-21 20:35:00,75.0,72.5,29.96,SSE,164,0.0,0.0,92,0.02,,---,0.02,VWS V14.01,2013-07-22 00:35:00,
2013-07-21 20:40:00,75.0,72.8,29.96,SSE,164,0.0,0.0,93,0.03,,---,0.03,VWS V14.01,2013-07-22 00:40:00,
2013-07-21 20:45:00,74.9,73.1,29.96,SSE,159,0.0,0.0,94,0.03,,---,0.03,VWS V14.01,2013-07-22 00:45:00,
2013-07-21 20:50:00,74.8,73.0,29.96,SSE,152,0.0,0.0,94,0.03,,---,0.03,VWS V14.01,2013-07-22 00:50:00,
2013-07-21 20:55:00,74.6,72.8,29.96,SSE,152,0.0,0.0,94,0.03,,---,0.03,VWS V14.01,2013-07-22 00:55:00,
2013-07-21 21:00:00,74.4,72.9,29.96,SSE,152,0.0,0.0,95,0.03,,---,0.03,VWS V14.01,2013-07-22 01:00:00,
2013-07-21 21:05:00,74.3,72.8,29.96,ESE,118,1.0,1.0,95,0.03,,---,0.03,VWS V14.01,2013-07-22 01:05:00,
2013-07-21 21:10:00,74.2,72.7,29.96,SSE,154,1.0,3.0,95,0.02,,---,0.03,VWS V14.01,2013-07-22 01:10:00,
2013-07-21 21:15:00,74.1,72.6,29.96,SE,134,1.0,4.0,95,0.02,,---,0.03,VWS V14.01,2013-07-22 01:15:00,
2013-07-21 21:20:00,73.9,72.4,29.96,SE,137,1.0,4.0,95,0.01,,---,0.03,VWS V14.01,2013-07-22 01:20:00,
2013-07-21 21:25:00,73.8,72.3,29.96,South,187,3.0,4.0,95,0.01,,---,0.03,VWS V14.01,2013-07-22 01:25:00,
2013-07-21 21:30:00,73.7,72.5,29.97,SSW,201,2.0,3.0,96,0.01,,---,0.03,VWS V14.01,2013-07-22 01:30:00,
2013-07-21 21:35:00,73.6,72.4,29.97,South,191,0.0,5.0,96,0.01,,---,0.03,VWS V14.01,2013-07-22 01:35:00,
2013-07-21 21:40:00,73.5,72.3,29.96,SE,129,2.0,4.0,96,0.01,,---,0.03,VWS V14.01,2013-07-22 01:40:00,
2013-07-21 21:45:00,73.4,72.2,29.97,SSE,166,0.0,2.0,96,0.00,,---,0.03,VWS V14.01,2013-07-22 01:45:00,
2013-07-21 21:50:00,73.3,72.1,29.97,SW,218,0.0,1.0,96,0.00,,---,0.03,VWS V14.01,2013-07-22 01:50:00,
2013-07-21 21:55:00,73.3,72.1,29.97,SSW,211,1.0,2.0,96,0.00,,---,0.03,VWS V14.01,2013-07-22 01:55:00,
2013-07-21 22:00:00,73.2,72.0,29.97,South,191,1.0,1.0,96,0.00,,---,0.03,VWS V14.01,2013-07-22 02:00:00,
2013-07-21 22:05:00,73.1,71.9,29.97,SE,132,1.0,2.0,96,0.00,,---,0.03,VWS V14.01,2013-07-22 02:05:00,
2013-07-21 22:10:00,73.1,71.9,29.97,SW,219,1.0,2.0,96,0.00,,---,0.03,VWS V14.01,2013-07-22 02:10:00,
2013-07-21 22:15:00,73.0,71.8,29.97,South,191,1.0,3.0,96,0.00,,---,0.03,VWS V14.01,2013-07-22 02:15:00,
2013-07-21 22:20:00,72.9,71.7,29.98,SSW,211,2.0,3.0,96,0.00,,---,0.03,VWS V14.01,2013-07-22 02:20:00,
2013-07-21 22:25:00,72.8,71.6,29.98,SW,215,2.0,3.0,96,0.00,,---,0.03,VWS V14.01,2013-07-22 02:25:00,
2013-07-21 22:30:00,72.8,71.6,29.98,South,173,0.0,2.0,96,0.00,,---,0.03,VWS V14.01,2013-07-22 02:30:00,
2013-07-21 22:35:00,72.8,71.9,29.99,SSW,205,0.0,1.0,97,0.00,,---,0.03,VWS V14.01,2013-07-22 02:35:00,
2013-07-21 22:40:00,72.7,71.8,29.98,SSW,212,0.0,2.0,97,0.00,,---,0.03,VWS V14.01,2013-07-22 02:40:00,
2013-07-21 22:45:00,72.7,71.8,29.99,SW,226,0.0,1.0,97,0.00,,---,0.03,VWS V14.01,2013-07-22 02:45:00,
2013-07-21 22:50:00,72.7,71.8,29.99,SSW,212,0.0,2.0,97,0.00,,---,0.03,VWS V14.01,2013-07-22 02:50:00,
2013-07-21 22:55:00,72.6,71.7,29.99,SW,228,1.0,3.0,97,0.00,,---,0.03,VWS V14.01,2013-07-22 02:55:00,
2013-07-21 23:00:00,72.5,71.6,29.99,WSW,256,1.0,4.0,97,0.00,,---,0.03,VWS V14.01,2013-07-22 03:00:00,
2013-07-21 23:05:00,72.4,71.5,30.00,West,276,2.0,5.0,97,0.00,,---,0.03,VWS V14.01,2013-07-22 03:05:00,
2013-07-21 23:10:00,72.3,71.4,30.00,SW,231,1.0,3.0,97,0.00,,---,0.03,VWS V14.01,2013-07-22 03:10:00,
2013-07-21 23:15:00,72.2,71.3,30.00,SW,228,1.0,4.0,97,0.00,,---,0.03,VWS V14.01,2013-07-22 03:15:00,
2013-07-21 23:20:00,72.2,71.3,30.00,SW,214,1.0,4.0,97,0.00,,---,0.03,VWS V14.01,2013-07-22 03:20:00,
2013-07-21 23:25:00,72.1,71.2,30.00,SW,222,2.0,2.0,97,0.00,,---,0.03,VWS V14.01,2013-07-22 03:25:00,
2013-07-21 23:30:00,72.0,71.1,30.00,SW,222,1.0,3.0,97,0.00,,---,0.03,VWS V14.01,2013-07-22 03:30:00,
2013-07-21 23:35:00,71.9,71.0,30.00,South,177,1.0,3.0,97,0.00,,---,0.03,VWS V14.01,2013-07-22 03:35:00,
2013-07-21 23:40:00,71.9,71.0,30.00,South,188,1.0,3.0,97,0.00,,---,0.03,VWS V14.01,2013-07-22 03:40:00,
2013-07-21 23:45:00,71.9,71.0,30.00,SW,225,0.0,2.0,97,0.00,,---,0.03,VWS V14.01,2013-07-22 03:45:00,
2013-07-21 23:50:00,71.8,70.9,30.00,WSW,238,1.0,3.0,97,0.00,,---,0.03,VWS V14.01,2013-07-22 03:50:00,
2013-07-21 23:55:00,71.8,70.9,30.00,SW,228,2.0,3.0,97,0.00,,---,0.03,VWS V14.01,2013-07-22 03:55:00,